Погода в Эйике

Россия / Республика Саха (Якутия)     66°02′05″N   117°24′10″E
темп.,
°C
ветер,
м/с
пор.,
м/с
влажн.,
%
обл.,
%
осадки,
мм/ч
давл.,
гПа
погр.,
м
28 января, чт
чт2800:00−42ссз2310030 0.0 103918
03:00−42ссз2310032 0.0 103818
06:00−41ссз3310039 0.0 103718
09:00−41ссз3310037 0.0 103718
12:00−40с349846 0.0 103624
15:00−40с349752 0.0 103534
18:00−41с449847 0.0 103628
21:00−42с449969 0.0 103631
29 января, пт
пт2900:00−42с4598100 0.0 103661
03:00−42с4498100 0.0 103642
06:00−43ссз459998 0.0 103646
09:00−43с449879 0.0 103829
12:00−43ссз449758 0.0 103855
15:00−42ссз349656 0.0 103938
18:00−43с349667 0.0 103923
21:00−44с449660 0.0 104128
30 января, сб
сб3000:00−44с449757 0.0 104138
03:00−43с459765 0.0 104151
06:00−43с459880 0.0 104145
09:00−43с459786 0.0 104165
12:00−41с469790 0.0 1040101
15:00−40ссз469695 0.0 103997
18:00−40с5897100 0.0 1039108
21:00−40с5996100 0.0 1039134
31 января, вс
вс3100:00−39с5996100 0.0 1038236
03:00−38с5996100 0.0 1038345
06:00−37с5995100 0.1 1037406
09:00−39с4796100 0.1 1038139
12:00−40ссз3497100 0.0 103777
15:00−39ссз349695 0.0 1037100
18:00−42ссз339659 0.0 103818
21:00−42сз339654 0.0 103918
1 февраля, пн
пн100:00−43сз339650 0.0 103818
03:00−44сз339650 0.0 103818
06:00−44зсз349551 0.0 103723
09:00−44сз349551 0.0 103723
12:00−43сз449451 0.0 103658
15:00−41зсз449451 0.0 103578
18:00−43сз559449 0.0 103451
21:00−43сз569449 0.0 103460